[[{"header":{"parameterUnit":"m.s-1","parameterCategory":1,"la1":30.2991,"la2":30.254,"lo1":-89.0895,"lo2":-89.0444,"dy":0.0017,"dx":0.0017,"nx":28,"ny":28,"refTime":"2024-07-14T03:00:00:Z","depth":0,"parameterNumber":2,"parameterNumberName":"U-component_of_WINDS"},"data":[0,0,0,0,0,0,0,0,0,0,0,0,0,0,0,0,0,0,0,0,0,0,0,0,0,0,0,0,0,0,0,0,0,0,0,0,0,0,0,0,0,0,0,0,0,0,0,0,0,0,0,0,0,0,0,0,0,0,1.5074,1.5075,0,1.5227,1.5229,1.5231,1.5249,1.5247,1.5246,1.5244,1.5408,1.5414,1.542,0,0,0,0,0,0,0,0,0,0,0,0,0,1.4801,1.4806,1.5073,1.5075,1.5077,1.5227,1.5229,1.5231,1.5249,1.5247,1.5245,1.5244,1.5406,1.5413,1.542,0,0,0,0,0,0,0,0,0,0,0,0,0,1.4934,1.4808,1.5073,1.5104,1.5108,1.5227,1.5229,1.5232,1.5249,1.5247,1.5245,1.5243,1.5404,1.5413,1.5421,1.5521,0,0,1.5448,1.5452,0,0,0,0,0,0,0,0,1.4926,1.4944,1.5098,1.5102,1.5107,1.5216,1.5193,1.5329,1.525,1.5196,1.5244,1.5242,1.5347,1.536,1.5394,1.5529,1.5536,1.5449,1.5454,1.5458,1.546,0,0,0,0,0,0,0,1.4917,1.4938,1.5135,1.51,1.5106,1.5112,1.5129,1.5219,1.5283,1.5201,1.5202,1.522,1.5349,1.5386,1.5398,1.5538,1.5448,1.5456,1.5461,1.5465,1.5764,1.5766,0,0,0,0,0,0,1.4901,1.493,1.513,1.5139,1.5009,1.5119,1.5137,1.5184,1.5282,1.5294,1.5222,1.522,1.5372,1.5388,1.5404,1.5528,1.5457,1.5466,1.5471,1.5761,1.5764,1.5767,0,0,0,0,0,0,1.4896,1.4919,1.5123,1.5035,1.5061,1.5126,1.5178,1.5188,1.5225,1.5298,1.531,1.5247,1.5371,1.5392,1.5492,1.5534,1.547,1.5477,1.5758,1.5762,1.5766,1.5777,0,0,0,0,0,0,1.4888,1.4917,1.4954,1.5036,1.5066,1.5207,1.5181,1.5193,1.5239,1.5238,1.5325,1.5337,1.5371,1.5479,1.55,1.5545,1.5484,1.5754,1.576,1.5765,1.5774,1.5781,1.5788,0,0,0,0,0,1.4878,1.4953,1.4956,1.498,1.5114,1.5209,1.5227,1.5262,1.5242,1.5281,1.5328,1.5334,1.5526,1.5489,1.5513,1.5561,1.5752,1.5758,1.5764,1.577,1.578,1.5788,0,0,0,0,0,0,1.4877,1.4964,1.4969,1.5071,1.5132,1.5212,1.5262,1.5271,1.5341,1.5338,1.5381,1.54,1.5499,1.554,1.5497,1.5664,1.5637,1.5649,1.5633,1.5643,1.565,1.5639,1.5492,0,0,0,0,0,1.4888,1.4956,1.5029,1.5113,1.5143,1.5197,1.524,1.5262,1.5328,1.5355,1.5409,1.5474,1.555,1.5598,1.5671,1.5779,1.5799,1.5824,1.5831,1.5837,1.5847,1.5908,1.5921,1.5788,1.5787,1.5787,0,0,1.4913,1.4969,1.501,1.5114,1.5164,1.5236,1.5219,1.5296,1.535,1.5367,1.5465,1.5506,1.5583,1.5687,1.5736,1.5724,1.5888,1.5845,1.5849,1.5856,1.5916,1.5928,1.594,1.5792,1.5791,1.579,0,0,1.4996,1.5044,1.5119,1.5169,1.5244,1.5279,1.5297,1.5375,1.5403,1.5501,1.5515,1.5581,1.5709,1.5763,1.5808,1.5909,1.5918,1.5932,1.5971,1.603,1.6041,1.605,1.6088,1.6101,1.5941,1.5941,1.5941,0,1.5018,1.5125,1.5158,1.5234,1.528,1.5296,1.5374,1.5421,1.5517,1.555,1.5535,1.5696,1.5748,1.5866,1.589,1.5925,1.5949,1.5923,1.6036,1.6046,1.6055,1.6092,1.6106,1.5943,1.5943,1.5942,1.5942,0,1.5149,1.5223,1.5275,1.5365,1.5417,1.5494,1.554,1.5589,1.5606,1.5643,1.5743,1.5806,1.5893,1.5922,1.594,1.6043,1.6033,1.6027,1.6001,1.6069,1.6104,1.6118,1.5945,1.5944,1.5944,1.5943,0,0,1.5237,1.5343,1.5362,1.5403,1.5486,1.5545,1.5623,1.5705,1.5747,1.5812,1.588,1.5987,1.5982,1.6032,1.6056,1.6107,1.6186,1.6095,1.6097,1.6111,1.6304,1.631,1.6326,1.6191,1.6194,1.6196,1.6299,0,1.5331,1.5467,1.5499,1.5618,1.5687,1.5703,1.5771,1.583,1.5867,1.5933,1.5975,1.605,1.6036,1.6067,1.6118,1.6165,1.6226,1.6158,1.6257,1.626,1.6239,1.6344,1.635,1.6444,1.6312,1.6315,1.6316,0,1.5458,1.5524,1.5649,1.5723,1.5754,1.5814,1.5892,1.5954,1.6022,1.6045,1.61,1.6119,1.6203,1.6171,1.6288,1.6241,1.6284,1.6313,1.6318,1.633,1.6294,1.6361,1.6474,1.6489,1.6338,1.6336,1.6335,0,1.5512,1.5632,1.5722,1.5757,1.5845,1.5887,1.5927,1.5992,1.604,1.6108,1.614,1.6218,1.6262,1.6323,1.6363,1.6336,1.6477,1.6448,1.6501,1.65,1.6531,1.6529,1.6655,1.6555,1.6555,1.6555,1.6555,0,1.5614,1.569,1.5747,1.5803,1.589,1.5925,1.6011,1.605,1.6108,1.6174,1.6192,1.6253,1.6302,1.637,1.6402,1.6495,1.6514,1.6537,1.6545,1.6536,1.6534,1.6566,1.6561,1.6559,1.6558,1.6557,1.6556,0,1.5689,1.573,1.583,1.5905,1.5925,1.5986,1.6051,1.6107,1.6143,1.6225,1.6247,1.6305,1.6386,1.6432,1.6535,1.6556,1.666,1.6664,1.6637,1.664,1.6691,1.6686,1.6844,1.6867,1.6749,1.6751,1.6751,0,1.5753,1.5811,1.5892,1.5935,1.5975,1.6045,1.6093,1.6131,1.618,1.6262,1.6309,1.639,1.6458,1.6588,1.6641,1.672,1.6727,1.6777,1.6739,1.6729,1.673,1.6726,1.6733,1.6784,1.6785,1.6786,1.6787,0,1.5861,1.5878,1.5945,1.602,1.6076,1.6137,1.6197,1.6233,1.6281,1.6336,1.6418,1.647,1.6574,1.6656,1.6739,1.6782,1.6793,1.6797,1.6814,1.6807,1.6789,1.6801,1.6656,1.6794,1.6794,1.6793,1.6793,1.6792,1.5934,1.5987,1.6051,1.6126,1.6175,1.6231,1.6287,1.6329,1.6397,1.6484,1.6502,1.6589,1.6657,1.6769,1.6814,1.6884,1.6875,1.6899,1.6905,1.6911,1.6913,1.6776,1.6899,1.6899,1.6899,1.6899,1.6899,0,1.6045,1.6087,1.6154,1.6237,1.6296,1.6298,1.6365,1.6415,1.6491,1.6552,1.6617,1.6712,1.6791,1.685,1.6931,1.6976,1.6983,1.6996,1.6995,1.7005,1.6916,1.6894,1.6989,1.6989,1.6989,1.6989,1.6989,1.6989,1.611,1.62,1.6224,1.6339,1.6381,1.6465,1.6503,1.6556,1.6604,1.6709,1.6774,1.681,1.687,1.6956,1.703,1.7045,1.7075,1.7087,1.7104,1.702,1.7011,1.7002,1.6981,1.7093,1.7093,1.7187,1.7188,1.7188]},{"header":{"parameterUnit":"m.s-1","parameterCategory":1,"la1":30.2991,"la2":30.254,"lo1":-89.0895,"lo2":-89.0444,"dy":0.0017,"dx":0.0017,"nx":28,"ny":28,"refTime":"2024-07-14T03:00:00:Z","depth":0,"parameterNumber":3,"parameterNumberName":"V-component_of_WINDS"},"data":[0,0,0,0,0,0,0,0,0,0,0,0,0,0,0,0,0,0,0,0,0,0,0,0,0,0,0,0,0,0,0,0,0,0,0,0,0,0,0,0,0,0,0,0,0,0,0,0,0,0,0,0,0,0,0,0,0,0,1.5328,1.5329,0,1.5427,1.5428,1.5429,1.5461,1.5461,1.5461,1.546,1.5563,1.5566,1.5569,0,0,0,0,0,0,0,0,0,0,0,0,0,1.5166,1.5168,1.5328,1.5329,1.5331,1.5427,1.5428,1.543,1.5462,1.5461,1.546,1.546,1.5562,1.5565,1.5569,0,0,0,0,0,0,0,0,0,0,0,0,0,1.5247,1.5169,1.5328,1.5358,1.5362,1.5427,1.5428,1.543,1.5462,1.5461,1.546,1.546,1.556,1.5565,1.557,1.5612,0,0,1.5584,1.5586,0,0,0,0,0,0,0,0,1.5243,1.5253,1.5352,1.5356,1.536,1.5431,1.5409,1.5491,1.5462,1.5424,1.546,1.5459,1.552,1.5528,1.5548,1.5617,1.5621,1.5585,1.5587,1.5589,1.5591,0,0,0,0,0,0,0,1.5237,1.5249,1.5367,1.5354,1.5359,1.5366,1.5377,1.5424,1.5474,1.5427,1.543,1.5441,1.5522,1.5543,1.555,1.5623,1.5584,1.5589,1.5592,1.5593,1.5728,1.5729,0,0,0,0,0,0,1.5226,1.5244,1.5364,1.537,1.5299,1.537,1.5382,1.5409,1.5474,1.5483,1.5441,1.5442,1.5535,1.5545,1.5554,1.5606,1.5589,1.5594,1.5597,1.5728,1.5728,1.5729,0,0,0,0,0,0,1.5223,1.5237,1.536,1.5308,1.5324,1.5373,1.5404,1.5412,1.5433,1.5485,1.5494,1.5454,1.5535,1.5547,1.5597,1.561,1.5596,1.56,1.5727,1.5728,1.5729,1.5711,0,0,0,0,0,0,1.5218,1.5235,1.5252,1.5308,1.5327,1.5402,1.5405,1.5414,1.5441,1.5443,1.5499,1.5508,1.5536,1.5589,1.5601,1.5616,1.5604,1.5726,1.5727,1.5729,1.5711,1.5711,1.5712,0,0,0,0,0,1.5212,1.5245,1.5253,1.5268,1.535,1.5402,1.5413,1.5444,1.5442,1.5459,1.5491,1.5506,1.5606,1.5594,1.5608,1.5624,1.5725,1.5727,1.5728,1.571,1.5711,1.5712,0,0,0,0,0,0,1.519,1.5253,1.5263,1.5314,1.5353,1.5408,1.5431,1.5445,1.5485,1.5485,1.5522,1.5534,1.558,1.5607,1.5593,1.5667,1.5666,1.5671,1.5648,1.5649,1.565,1.5642,1.5608,0,0,0,0,0,1.5191,1.5229,1.5281,1.5322,1.534,1.5382,1.5406,1.5426,1.5468,1.5484,1.5521,1.556,1.56,1.5626,1.5667,1.5714,1.5726,1.5732,1.5733,1.5733,1.5737,1.5761,1.5764,1.5735,1.5735,1.5735,0,0,1.5194,1.5233,1.5255,1.5318,1.535,1.5388,1.5395,1.5436,1.5463,1.5491,1.5538,1.5566,1.5613,1.566,1.5683,1.5684,1.5747,1.5735,1.5735,1.5739,1.5763,1.5766,1.5769,1.5736,1.5736,1.5736,0,0,1.5219,1.5252,1.5288,1.5319,1.5367,1.5394,1.5402,1.5455,1.5473,1.5522,1.5542,1.5576,1.5645,1.5676,1.5701,1.5733,1.5747,1.5745,1.5749,1.5773,1.5775,1.5777,1.5787,1.579,1.5748,1.5748,1.5748,0,1.5216,1.5274,1.5305,1.5343,1.5369,1.5394,1.543,1.5459,1.5517,1.5535,1.5535,1.562,1.5653,1.5707,1.5714,1.5735,1.5744,1.5739,1.5772,1.5775,1.5777,1.5787,1.5791,1.5748,1.5748,1.5748,1.5748,0,1.5267,1.5307,1.533,1.5384,1.5413,1.545,1.5486,1.5511,1.5528,1.5554,1.5602,1.5642,1.5689,1.5704,1.5722,1.576,1.5759,1.5765,1.5765,1.5779,1.5788,1.5793,1.5747,1.5747,1.5747,1.5747,0,0,1.5283,1.5351,1.5359,1.5383,1.5436,1.5467,1.5503,1.5549,1.5569,1.5608,1.5638,1.5694,1.57,1.5728,1.5749,1.577,1.579,1.5773,1.5775,1.5774,1.5832,1.5826,1.583,1.5799,1.58,1.58,1.5828,0,1.5313,1.538,1.5407,1.5461,1.5496,1.5518,1.555,1.5585,1.561,1.5643,1.5671,1.5709,1.5714,1.5731,1.5752,1.5783,1.5802,1.5781,1.5827,1.5829,1.5815,1.5836,1.5831,1.5855,1.5832,1.5832,1.5833,0,1.5357,1.5394,1.5451,1.5497,1.5513,1.5541,1.5583,1.5615,1.5654,1.5671,1.57,1.5719,1.5757,1.5754,1.5806,1.5791,1.5811,1.5829,1.583,1.5836,1.5832,1.5841,1.5864,1.5867,1.584,1.5839,1.5839,0,1.536,1.5425,1.5466,1.5486,1.5541,1.556,1.5584,1.5623,1.5647,1.5684,1.5699,1.574,1.5762,1.5793,1.5822,1.5817,1.5871,1.587,1.5885,1.5884,1.5896,1.5894,1.5921,1.5909,1.5909,1.5909,1.5909,0,1.5391,1.5424,1.5468,1.5494,1.5531,1.5562,1.5598,1.5623,1.5657,1.5687,1.5709,1.5736,1.5773,1.5805,1.5828,1.5867,1.5877,1.5891,1.5896,1.5889,1.5887,1.5902,1.5901,1.591,1.591,1.5909,1.5909,0,1.5401,1.5432,1.5478,1.5526,1.5538,1.5563,1.5604,1.5629,1.5653,1.5691,1.5701,1.574,1.5779,1.5811,1.5862,1.5877,1.5917,1.5924,1.5903,1.5906,1.5918,1.5916,1.5955,1.5961,1.5946,1.5946,1.5946,0,1.5418,1.5444,1.5493,1.5514,1.5537,1.5572,1.5596,1.5626,1.5651,1.5696,1.5715,1.5755,1.5788,1.5848,1.5881,1.5919,1.5927,1.5938,1.5933,1.5924,1.5926,1.5924,1.5926,1.5938,1.5938,1.5938,1.5938,0,1.5444,1.5457,1.5491,1.553,1.5558,1.559,1.5623,1.5639,1.5676,1.5702,1.5741,1.5766,1.5817,1.5856,1.5897,1.5921,1.5935,1.5939,1.5945,1.5937,1.5924,1.593,1.5903,1.5939,1.5939,1.5939,1.5939,1.5939,1.5457,1.548,1.5518,1.5554,1.5582,1.5611,1.5636,1.5663,1.5696,1.5739,1.5755,1.5795,1.5831,1.5888,1.5911,1.5942,1.5944,1.5952,1.5954,1.5955,1.5953,1.5918,1.595,1.595,1.595,1.595,1.595,0,1.5483,1.5508,1.5541,1.5585,1.5614,1.5624,1.566,1.5683,1.5717,1.575,1.5781,1.5825,1.5862,1.5896,1.5934,1.5952,1.596,1.5961,1.596,1.5965,1.595,1.5941,1.5954,1.5954,1.5954,1.5954,1.5954,1.5954,1.55,1.5539,1.5556,1.5608,1.5633,1.5671,1.569,1.5717,1.5743,1.579,1.5821,1.5843,1.5876,1.5916,1.595,1.5959,1.5972,1.5971,1.5982,1.5967,1.5966,1.5966,1.5958,1.5974,1.5974,1.5994,1.5994,1.5995]}]]